Content
SEND FEEDBACK

Daily
Averages
Monthly
Summary
United States of America

UMATAC, GUAM


Home > North America > United States > Guam
Elevation: 58 meters     Latitude: 13 17N     Longitude: 144 40E

WEATHER
 
SELECT A DAY
Number of Records: 342,273;   Date Range: 1/1/95 - 8/30/14
 
SHARE

PRINT THIS DATA

[ ← Previous Day ]
WEATHER ALMANAC - 1 APRIL, 2013
[ Next Day → ]
[ °F ]   °C
Weather ElementAverageHighLow
Temperature25.7 °C29 °C (11:03 am)23 °C (7:24 pm)
Dewpoint23.6 °C25 °C (11:03 am)22 °C (2:51 am)
Humidity88.3 %100 % (2:00 pm)74 % (12:17 pm)
Barometer1012.9 hPa1014.9 hPa (8:55 am)1011.9 hPa (2:31 am)
Wind Speed27.8 km/h53.8 km/h (3:51 pm)
Wind Gust59.2 km/h (3:50 pm)
Weather ElementAverage
Visibility12.4 km
Wind DirectionENE (72.7 °)

Weather ElementTotal
Precipitation---
Cooling Degree Days7.7 (Base 18.3)
Growing Degree Days16 (Base 10)
Averaged from 188 records on 1 April, 2013
WEATHER CONDITIONS BREAKOUT
WIND DIRECTION BREAKOUT
WEATHER BY HOUR - 1 APRIL, 2013
[ °F ]   °C
Local TimeTemperatureDewpointHumidityBarometerVisibilityWind DirectionWind SpeedGust SpeedPrecipitationEventsConditions
12:55 AM25.6 °C22.8 °C84 %1012.5 hPa16.1 kmEast (80°)22.2 km/hPartly Cloudy
1:19 AM26 °C23 °C83 %1012.5 hPa16.1 kmEast (80°)20.4 km/hMostly Cloudy
1:21 AM26 °C23 °C83 %1012.5 hPa16.1 kmEast (80°)18.5 km/hScattered Clouds
1:23 AM26 °C23 °C83 %1012.5 hPa16.1 kmEast (80°)20.4 km/hMostly Cloudy
1:25 AM26 °C23 °C83 %1012.5 hPa16.1 kmEast (80°)22.2 km/hMostly Cloudy
1:27 AM26 °C23 °C83 %1012.5 hPa16.1 kmEast (80°)18.5 km/hMostly Cloudy
1:39 AM26 °C23 °C83 %1012.5 hPa16.1 kmEast (80°)24.1 km/hMostly Cloudy
1:42 AM26 °C23 °C83 %1012.5 hPa16.1 kmEast (90°)22.2 km/hMostly Cloudy
1:43 AM26 °C23 °C83 %1012.5 hPa16.1 kmEast (80°)22.2 km/hScattered Clouds
1:44 AM26 °C23 °C83 %1012.5 hPa16.1 kmEast (80°)18.5 km/hMostly Cloudy
1:45 AM26 °C23 °C83 %1012.5 hPa16.1 kmEast (80°)20.4 km/hScattered Clouds
1:55 AM25.5 °C22.7 °C84 %1012.2 hPa16.1 kmEast (80°)22.2 km/hPartly Cloudy
2:31 AM26 °C23 °C83 %1011.9 hPa16.1 kmENE (70°)20.4 km/hRainLight Rain
2:35 AM26 °C23 °C83 %1011.9 hPa16.1 kmEast (80°)25.9 km/hLight Drizzle
2:41 AM25 °C23 °C89 %1011.9 hPa16.1 kmENE (70°)25.9 km/hMostly Cloudy
2:51 AM25 °C22 °C83 %1011.9 hPa16.1 kmEast (80°)25.9 km/hMostly Cloudy
2:55 AM25.4 °C22.7 °C85 %1011.9 hPa16.1 kmEast (80°)22.2 km/h0 mmMostly Cloudy
2:56 AM25 °C23 °C89 %1011.9 hPa16.1 kmEast (80°)24.1 km/hMostly Cloudy
3:03 AM26 °C23 °C83 %1011.9 hPa16.1 kmEast (80°)27.8 km/hMostly Cloudy
3:24 AM26 °C23 °C83 %1011.9 hPa16.1 kmEast (80°)24.1 km/hScattered Clouds
3:37 AM26 °C23 °C83 %1011.9 hPa16.1 kmENE (70°)25.9 km/hMostly Cloudy
3:48 AM26 °C23 °C83 %1011.9 hPa16.1 kmEast (80°)25.9 km/hScattered Clouds
3:49 AM26 °C23 °C83 %1011.9 hPa16.1 kmEast (80°)24.1 km/hMostly Cloudy
3:51 AM26 °C23 °C83 %1011.9 hPa16.1 kmEast (80°)24.1 km/hScattered Clouds
3:53 AM26 °C23 °C83 %1011.9 hPa16.1 kmENE (70°)25.9 km/hMostly Cloudy
3:55 AM25.6 °C22.6 °C83 %1011.9 hPa16.1 kmENE (70°)24.1 km/hMostly Cloudy
4:03 AM26 °C22 °C78 %1011.9 hPa16.1 kmEast (80°)20.4 km/hScattered Clouds
4:55 AM25.4 °C22.9 °C86 %1012.5 hPa16.1 kmEast (80°)20.4 km/hScattered Clouds
5:10 AM26 °C23 °C83 %1012.5 hPa16.1 kmENE (70°)22.2 km/hMostly Cloudy
5:31 AM26 °C23 °C83 %1012.9 hPa16.1 kmENE (60°)25.9 km/hMostly Cloudy
5:35 AM25 °C23 °C89 %1012.9 hPa16.1 kmENE (60°)24.1 km/hMostly Cloudy
5:40 AM25 °C23 °C89 %1012.9 hPa16.1 kmENE (60°)22.2 km/hMostly Cloudy
5:55 AM25.4 °C23 °C86 %1012.9 hPa16.1 kmENE (70°)22.2 km/hMostly Cloudy
5:58 AM25 °C23 °C89 %1012.9 hPa16.1 kmENE (70°)24.1 km/hMostly Cloudy
6:55 AM25.7 °C23.4 °C87 %1013.9 hPa16.1 kmEast (80°)13 km/hPartly Cloudy
7:28 AM26 °C23 °C83 %1014.2 hPa16.1 kmENE (70°)20.4 km/hMostly Cloudy
7:43 AM26 °C24 °C89 %1014.2 hPa16.1 kmENE (60°)20.4 km/hMostly Cloudy
7:46 AM26 °C24 °C89 %1014.6 hPa9.7 kmENE (70°)27.8 km/h40.7 km/hHaze
7:47 AM26 °C24 °C89 %1014.6 hPa6.4 kmENE (70°)25.9 km/h40.7 km/hRainLight Rain
7:48 AM26 °C24 °C89 %1014.6 hPa4.8 kmENE (70°)27.8 km/h40.7 km/hRainLight Rain
7:52 AM26 °C24 °C89 %1014.6 hPa4.8 kmEast (80°)24.1 km/h40.7 km/hRainRain
7:55 AM25.7 °C23.7 °C89 %1014.6 hPa4.8 kmENE (70°)24.1 km/h40.7 km/h0 mmRainLight Rain
8:00 AM26 °C24 °C89 %1014.6 hPa16.1 kmENE (70°)24.1 km/hMostly Cloudy
8:01 AM26 °C24 °C89 %1014.6 hPa16.1 kmENE (70°)22.2 km/hMostly Cloudy
8:05 AM26 °C24 °C89 %1014.6 hPa16.1 kmNE (50°)20.4 km/hMostly Cloudy
8:10 AM26 °C24 °C89 %1014.6 hPa16.1 kmENE (60°)18.5 km/hMostly Cloudy
8:55 AM27.1 °C24.2 °C84 %1014.9 hPa16.1 kmENE (70°)20.4 km/h0 mmPartly Cloudy
9:48 AM27 °C24 °C84 %1014.9 hPa16.1 kmENE (70°)18.5 km/hMostly Cloudy
9:50 AM27 °C24 °C84 %1014.9 hPa16.1 kmENE (60°)22.2 km/hMostly Cloudy
9:51 AM27 °C24 °C84 %1014.6 hPa16.1 kmENE (60°)22.2 km/hMostly Cloudy
9:54 AM27 °C24 °C84 %1014.6 hPa16.1 kmENE (70°)16.7 km/hMostly Cloudy
9:55 AM27.3 °C23.6 °C80 %1014.6 hPa16.1 kmENE (70°)18.5 km/hMostly Cloudy
10:16 AM27 °C24 °C84 %1014.6 hPa16.1 kmENE (70°)22.2 km/hLight Drizzle
10:26 AM27 °C24 °C84 %1014.6 hPa16.1 kmENE (60°)25.9 km/h31.5 km/hMostly Cloudy
10:31 AM27 °C24 °C84 %1014.2 hPa16.1 kmENE (70°)24.1 km/h31.5 km/hMostly Cloudy
10:55 AM28.8 °C24 °C75 %1014.2 hPa16.1 kmEast (80°)27.8 km/h0 mmMostly Cloudy
11:03 AM29 °C25 °C79 %1013.9 hPa16.1 kmENE (60°)24.1 km/hMostly Cloudy
11:04 AM29 °C25 °C79 %1013.9 hPa16.1 kmENE (60°)25.9 km/hMostly Cloudy
11:11 AM29 °C25 °C79 %1013.9 hPa16.1 kmENE (60°)24.1 km/hMostly Cloudy
11:13 AM29 °C25 °C79 %1013.9 hPa16.1 kmENE (70°)22.2 km/hMostly Cloudy
11:55 AM29 °C24.5 °C77 %1013.5 hPa16.1 kmENE (60°)25.9 km/hMostly Cloudy
12:17 PM29 °C24 °C74 %1013.2 hPa16.1 kmENE (70°)25.9 km/h38.9 km/hMostly Cloudy
12:18 PM29 °C24 °C74 %1013.2 hPa16.1 kmENE (70°)24.1 km/h38.9 km/hMostly Cloudy
12:31 PM29 °C24 °C74 %1013.2 hPa16.1 kmNE (50°)31.5 km/h40.7 km/hMostly Cloudy
12:34 PM29 °C24 °C74 %1012.9 hPa16.1 kmENE (60°)33.3 km/h40.7 km/hMostly Cloudy
12:46 PM29 °C24 °C74 %1012.9 hPa16.1 kmENE (60°)35.2 km/hMostly Cloudy
12:51 PM28 °C25 °C84 %1012.9 hPa16.1 kmNE (50°)35.2 km/hMostly Cloudy
12:52 PM28 °C25 °C84 %1012.9 hPa16.1 kmNE (50°)37 km/hMostly Cloudy
12:53 PM28 °C25 °C84 %1012.9 hPa16.1 kmNE (50°)35.2 km/hMostly Cloudy
12:55 PM28.2 °C24.4 °C80 %1012.9 hPa16.1 kmNE (50°)35.2 km/hMostly Cloudy
1:03 PM28 °C24 °C79 %1012.9 hPa16.1 kmENE (60°)33.3 km/h42.6 km/hOvercast
1:06 PM27 °C24 °C84 %1012.9 hPa12.9 kmEast (80°)31.5 km/h42.6 km/hOvercast
1:07 PM27 °C24 °C84 %1012.9 hPa11.3 kmENE (70°)31.5 km/h42.6 km/hLight Drizzle
1:10 PM27 °C24 °C84 %1012.9 hPa11.3 kmEast (80°)35.2 km/h44.4 km/hRainLight Rain
1:17 PM26 °C24 °C89 %1012.9 hPa8 kmENE (70°)33.3 km/h44.4 km/hRainLight Rain
1:18 PM26 °C24 °C89 %1012.9 hPa9.7 kmENE (60°)31.5 km/h44.4 km/hRainLight Rain
1:20 PM26 °C24 °C89 %1012.9 hPa9.7 kmENE (60°)31.5 km/h44.4 km/hLight Drizzle
1:22 PM26 °C24 °C89 %1012.9 hPa9.7 kmENE (60°)29.6 km/h44.4 km/hOvercast
1:24 PM26 °C24 °C89 %1012.9 hPa11.3 kmENE (70°)29.6 km/h44.4 km/hLight Drizzle
1:32 PM25 °C24 °C94 %1012.9 hPa6.4 kmENE (70°)31.5 km/hLight Drizzle
1:36 PM25 °C24 °C94 %1012.9 hPa4.8 kmEast (80°)25.9 km/hLight Drizzle
1:39 PM25 °C24 °C94 %1012.9 hPa4.8 kmEast (80°)27.8 km/hRainLight Rain
1:44 PM25 °C24 °C94 %1012.5 hPa6.4 kmENE (70°)24.1 km/hRainLight Rain
1:48 PM25 °C24 °C94 %1012.5 hPa12.9 kmENE (70°)22.2 km/hRainLight Rain
1:50 PM25 °C24 °C94 %1012.5 hPa12.9 kmENE (70°)24.1 km/hRainLight Rain
1:55 PM25.2 °C24.1 °C94 %1012.2 hPa16.1 kmENE (60°)22.2 km/h35.2 km/h0 mmRainLight Rain
1:56 PM25 °C24 °C94 %1012.5 hPa16.1 kmENE (70°)25.9 km/h35.2 km/hOvercast
1:59 PM25 °C24 °C94 %1012.2 hPa16.1 kmENE (70°)24.1 km/h35.2 km/hOvercast
2:00 PM25 °C25 °C100 %1012.2 hPa16.1 kmENE (70°)25.9 km/h35.2 km/hOvercast
2:01 PM25 °C25 °C100 %1012.2 hPa16.1 kmENE (70°)22.2 km/h35.2 km/hOvercast
2:02 PM26 °C25 °C94 %1012.2 hPa16.1 kmENE (60°)20.4 km/h35.2 km/hOvercast
2:05 PM26 °C25 °C94 %1012.2 hPa16.1 kmENE (60°)24.1 km/h35.2 km/hOvercast
2:22 PM27 °C25 °C89 %1011.9 hPa16.1 kmENE (70°)24.1 km/hOvercast
2:34 PM27 °C24 °C84 %1011.9 hPa16.1 kmENE (60°)25.9 km/hOvercast
2:49 PM27 °C24 °C84 %1011.9 hPa16.1 kmENE (70°)25.9 km/hOvercast
2:55 PM27.5 °C24.3 °C83 %1011.9 hPa16.1 kmENE (60°)27.8 km/hOvercast
3:15 PM28 °C25 °C84 %1011.9 hPa6.4 kmENE (70°)27.8 km/h40.7 km/hRainLight Rain
3:18 PM27 °C25 °C89 %1011.9 hPa4 kmENE (70°)27.8 km/h40.7 km/hRainRain
3:21 PM26 °C24 °C89 %1011.9 hPa3.2 kmENE (70°)25.9 km/h40.7 km/hRainLight Rain
3:23 PM26 °C24 °C89 %1011.9 hPa3.2 kmENE (70°)25.9 km/h40.7 km/hRainLight Rain
3:24 PM26 °C24 °C89 %1011.9 hPa4 kmENE (70°)24.1 km/h40.7 km/hRainRain
3:25 PM26 °C24 °C89 %1011.9 hPa4.8 kmENE (60°)24.1 km/h40.7 km/hRainRain
3:26 PM26 °C24 °C89 %1011.9 hPa4.8 kmENE (60°)22.2 km/h40.7 km/hRainRain
3:28 PM26 °C24 °C89 %1011.9 hPa8 kmENE (60°)24.1 km/h40.7 km/hRainLight Rain
3:31 PM26 °C25 °C94 %1011.9 hPa11.3 kmENE (70°)24.1 km/hRainLight Rain
3:32 PM26 °C25 °C94 %1011.9 hPa14.5 kmEast (80°)25.9 km/hMostly Cloudy
3:41 PM27 °C25 °C89 %1011.9 hPa16.1 kmENE (70°)27.8 km/h38.9 km/hScattered Clouds
3:44 PM27 °C25 °C89 %1011.9 hPa16.1 kmENE (70°)29.6 km/h38.9 km/hScattered Clouds
3:50 PM27 °C25 °C89 %1012.2 hPa2.9 kmEast (80°)50.1 km/h59.2 km/hRainHeavy Rain
3:51 PM27 °C24 °C84 %1011.9 hPa1.9 kmEast (80°)53.8 km/h59.2 km/hRainHeavy Rain
3:52 PM26 °C24 °C89 %1012.2 hPa1.6 kmENE (70°)50.1 km/h59.2 km/hRainHeavy Rain
3:53 PM26 °C24 °C89 %1011.9 hPa1.3 kmEast (80°)42.6 km/h59.2 km/hRainHeavy Rain
3:55 PM25.1 °C23.3 °C90 %1012.2 hPa1.3 kmENE (70°)40.7 km/h59.2 km/h0 mmRainRain
4:03 PM24 °C23 °C94 %1012.2 hPa1.6 kmENE (70°)33.3 km/h51.8 km/hRainHeavy Rain
4:06 PM24 °C23 °C94 %1012.2 hPa1.6 kmENE (70°)37 km/hRainRain
4:08 PM24 °C23 °C94 %1011.9 hPa1.9 kmENE (70°)33.3 km/hRainLight Rain
4:09 PM24 °C23 °C94 %1011.9 hPa2.4 kmENE (70°)31.5 km/h46.3 km/hRainLight Rain
4:11 PM24 °C23 °C94 %1011.9 hPa3.2 kmENE (70°)25.9 km/h46.3 km/hRainLight Rain
4:12 PM24 °C23 °C94 %1011.9 hPa4 kmENE (70°)24.1 km/hRainLight Rain
4:13 PM24 °C23 °C94 %1011.9 hPa4.8 kmENE (70°)24.1 km/hRainLight Rain
4:18 PM24 °C23 °C94 %1011.9 hPa14.5 kmEast (80°)27.8 km/hOvercast
4:22 PM25 °C23 °C89 %1011.9 hPa16.1 kmEast (80°)27.8 km/hOvercast
4:35 PM25 °C24 °C94 %1011.9 hPa6.4 kmEast (80°)33.3 km/h46.3 km/hRainLight Rain
4:41 PM25 °C24 °C94 %1011.9 hPa6.4 kmEast (90°)31.5 km/h46.3 km/hRainLight Rain
4:45 PM25 °C24 °C94 %1011.9 hPa11.3 kmEast (90°)25.9 km/h40.7 km/hOvercast
4:47 PM25 °C24 °C94 %1011.9 hPa14.5 kmEast (90°)29.6 km/h40.7 km/hOvercast
4:48 PM25 °C24 °C94 %1011.9 hPa14.5 kmEast (90°)27.8 km/hOvercast
4:55 PM25.3 °C23.8 °C91 %1011.9 hPa16.1 kmEast (80°)33.3 km/h0 mmOvercast
5:01 PM25 °C23 °C89 %1011.9 hPa16.1 kmEast (80°)37 km/h42.6 km/hOvercast
5:17 PM26 °C24 °C89 %1011.9 hPa16.1 kmEast (80°)25.9 km/hMostly Cloudy
5:49 PM25 °C24 °C94 %1012.2 hPa16.1 kmENE (70°)22.2 km/h38.9 km/hMostly Cloudy
5:55 PM25 °C23.8 °C93 %1012.2 hPa16.1 kmENE (70°)24.1 km/hScattered Clouds
6:14 PM25 °C23 °C89 %1012.5 hPa4 kmEast (90°)42.6 km/h51.8 km/hRainRain
6:15 PM25 °C23 °C89 %1012.5 hPa2.9 kmEast (80°)42.6 km/h51.8 km/hRainRain
6:16 PM25 °C23 °C89 %1012.5 hPa1.9 kmEast (80°)44.4 km/h51.8 km/hRainRain
6:17 PM25 °C23 °C89 %1012.9 hPa1.6 kmEast (80°)46.3 km/h51.8 km/hRainHeavy Rain
6:20 PM24 °C23 °C94 %1012.9 hPa1.6 kmENE (70°)42.6 km/h51.8 km/hRainLight Rain
6:24 PM24 °C23 °C94 %1012.9 hPa1.9 kmENE (70°)33.3 km/h51.8 km/hRainLight Rain
6:25 PM24 °C23 °C94 %1012.9 hPa2.4 kmENE (70°)33.3 km/h51.8 km/hRainLight Rain
6:26 PM24 °C23 °C94 %1012.9 hPa3.2 kmENE (70°)35.2 km/h51.8 km/hRainLight Rain
6:27 PM24 °C23 °C94 %1012.9 hPa4.8 kmENE (70°)38.9 km/h51.8 km/hRainLight Rain
6:29 PM24 °C23 °C94 %1012.9 hPa6.4 kmEast (80°)35.2 km/h51.8 km/hRainLight Rain
6:31 PM24 °C23 °C94 %1012.9 hPa8 kmENE (70°)33.3 km/h51.8 km/hLight Drizzle
6:38 PM24 °C23 °C94 %1012.9 hPa9.7 kmENE (70°)25.9 km/h44.4 km/hRainLight Rain
6:40 PM24 °C23 °C94 %1012.5 hPa11.3 kmENE (70°)24.1 km/h44.4 km/hOvercast
6:47 PM24 °C24 °C100 %1012.9 hPa12.9 kmENE (70°)24.1 km/hRainLight Rain
6:51 PM24 °C24 °C100 %1012.9 hPa9.7 kmENE (70°)27.8 km/h38.9 km/hLight Drizzle
6:55 PM24.4 °C23.7 °C96 %1012.9 hPa9.7 kmENE (70°)33.3 km/h44.4 km/hLight Drizzle
6:58 PM24 °C24 °C100 %1012.9 hPa11.3 kmEast (80°)37 km/h48.1 km/hLight Drizzle
7:00 PM24 °C24 °C100 %1012.9 hPa14.5 kmEast (80°)33.3 km/h48.1 km/hOvercast
7:08 PM24 °C23 °C94 %1012.9 hPa16.1 kmENE (70°)40.7 km/h53.8 km/hOvercast
7:17 PM24 °C22 °C89 %1012.9 hPa16.1 kmENE (60°)37 km/hOvercast
7:24 PM23 °C22 °C94 %1012.9 hPa16.1 kmENE (60°)29.6 km/hOvercast
7:33 PM23 °C22 °C94 %1013.2 hPa16.1 kmENE (60°)22.2 km/h38.9 km/hOvercast
7:44 PM24 °C22 °C89 %1013.2 hPa11.3 kmEast (80°)27.8 km/hRainLight Rain
7:47 PM24 °C22 °C89 %1013.2 hPa9.7 kmEast (80°)35.2 km/h50.1 km/hLight Drizzle
7:50 PM24 °C23 °C94 %1013.2 hPa9.7 kmEast (80°)33.3 km/h50.1 km/hLight Drizzle
7:55 PM24 °C23 °C94 %1013.2 hPa12.9 kmEast (80°)31.5 km/h50.1 km/hLight Drizzle
7:56 PM24 °C23 °C94 %1013.2 hPa12.9 kmEast (80°)29.6 km/h50.1 km/hLight Drizzle
7:57 PM24 °C23 °C94 %1013.2 hPa12.9 kmEast (80°)27.8 km/h50.1 km/hOvercast
7:59 PM24 °C23 °C94 %1013.2 hPa11.3 kmENE (70°)31.5 km/h38.9 km/hLight Drizzle
8:09 PM24 °C22 °C89 %1013.2 hPa16.1 kmENE (70°)22.2 km/hOvercast
8:11 PM24 °C22 °C89 %1013.2 hPa16.1 kmENE (70°)22.2 km/hOvercast
8:24 PM25 °C23 °C89 %1013.2 hPa16.1 kmEast (80°)20.4 km/h37 km/hOvercast
8:31 PM25 °C23 °C89 %1013.2 hPa9.7 kmEast (90°)40.7 km/h53.8 km/hRainLight Rain
8:35 PM24 °C23 °C94 %1013.5 hPa4 kmEast (80°)38.9 km/h53.8 km/hRainRain
8:36 PM24 °C23 °C94 %1013.5 hPa3.2 kmEast (80°)35.2 km/h53.8 km/hRainHeavy Rain
8:42 PM24 °C23 °C94 %1013.5 hPa4 kmEast (80°)27.8 km/h53.8 km/hRainLight Rain
8:43 PM24 °C23 °C94 %1013.5 hPa4.8 kmEast (90°)27.8 km/h53.8 km/hRainLight Rain
8:50 PM25 °C24 °C94 %1013.5 hPa14.5 kmEast (80°)25.9 km/hMostly Cloudy
8:53 PM25 °C24 °C94 %1013.5 hPa16.1 kmEast (90°)25.9 km/h37 km/hMostly Cloudy
8:55 PM24.8 °C23.8 °C94 %1013.5 hPa16.1 kmEast (80°)24.1 km/h37 km/hMostly Cloudy
9:21 PM25 °C24 °C94 %1013.5 hPa16.1 kmEast (80°)25.9 km/h37 km/hMostly Cloudy
9:43 PM26 °C24 °C89 %1013.5 hPa16.1 kmEast (90°)29.6 km/hMostly Cloudy
9:55 PM25.6 °C24 °C91 %1013.5 hPa16.1 kmEast (90°)29.6 km/hMostly Cloudy
10:00 PM26 °C24 °C89 %1013.5 hPa16.1 kmEast (80°)27.8 km/hMostly Cloudy
10:02 PM26 °C24 °C89 %1013.5 hPa16.1 kmEast (80°)25.9 km/hMostly Cloudy
10:05 PM26 °C24 °C89 %1013.5 hPa16.1 kmEast (90°)24.1 km/hMostly Cloudy
10:23 PM26 °C23 °C83 %1013.9 hPa16.1 kmEast (80°)24.1 km/hMostly Cloudy
10:30 PM26 °C24 °C89 %1013.9 hPa16.1 kmEast (80°)27.8 km/hMostly Cloudy
10:33 PM26 °C24 °C89 %1013.9 hPa16.1 kmENE (70°)29.6 km/hMostly Cloudy
10:54 PM26 °C24 °C89 %1013.9 hPa16.1 kmEast (80°)29.6 km/h38.9 km/hMostly Cloudy
10:55 PM25.8 °C23.8 °C89 %1013.9 hPa16.1 kmEast (80°)29.6 km/h38.9 km/hOvercast
10:57 PM26 °C24 °C89 %1013.9 hPa16.1 kmEast (80°)31.5 km/h38.9 km/hOvercast
11:12 PM26 °C23 °C83 %1013.9 hPa16.1 kmEast (80°)29.6 km/hMostly Cloudy
11:18 PM26 °C23 °C83 %1013.5 hPa16.1 kmEast (80°)33.3 km/hOvercast
11:52 PM26 °C23 °C83 %1013.2 hPa16.1 kmENE (70°)29.6 km/hMostly Cloudy
11:55 PM25.7 °C23.2 °C86 %1013.2 hPa16.1 kmENE (70°)29.6 km/hMostly Cloudy
Hourly data recorded from PGUA, located 0 kilometers away from Umatac, Guam







STORIES FROM OUR PARTNERS